Greenwood, MS

8:38 AM CDT on June 28, 2017 (GMT -0500)
Greenwood-Leflore

Weather History for KGWO - September, 2013

Change the Weather History Date:

Friday, September 13, 2013

  Actual Average Record
Temperature  
Mean Temperature 77 °F 76 °F  
Max Temperature 91 °F 88 °F 97 °F (1995)
Min Temperature 62 °F 64 °F 47 °F (2015)
Degree Days  
Heating Degree Days 0 0  
Month to date heating degree days 0 0  
Since 1 July heating degree days 0 0  
Cooling Degree Days 12 11  
Month to date cooling degree days 209 164  
Year to date cooling degree days 1831 1906  
Growing Degree Days 28 (Base 50)    
Moisture  
Dew Point 65 °F    
Average Humidity 66    
Maximum Humidity 93    
Minimum Humidity 38    
Precipitation  
Precipitation 0.00 in 0.12 in 1.76 in (2007)
Month to date precipitation 0.70 1.52  
Year to date precipitation 38.95 35.59  
Sea Level Pressure  
Sea Level Pressure 29.93 in    
Wind  
Wind Speed 6 mph (NNE)    
Max Wind Speed 16 mph    
Max Gust Speed 22 mph    
Visibility 9 miles    
Events      
T = Trace of Precipitation, MM = Missing Value Source: NWS Daily Summary

Daily Weather History Graph

Daily Weather History Graph

Search for Another Location

Airport or City:

Trip Planner

Search our weather history database for the weather conditions in past years. The results will help you decide how hot, cold, wet, or windy it might be!

Date:

Astronomy

Sep. 13, 2013 Rise Set
Actual Time 6:42 AM CDT 7:09 PM CDT
Civil Twilight 6:17 AM CDT 7:34 PM CDT
Nautical Twilight 5:48 AM CDT 8:03 PM CDT
Astronomical Twilight 5:18 AM CDT 8:32 PM CDT
Moon 2:46 PM CDT (9/13) 12:24 AM CDT (9/13)
Length of Visible Light 13h 16m
Length of Day
12h 26m
First Quarter, 61% of the Moon is Illuminated
Sep 13
First Quarter
Sep 19
Full
Sep 26
Last Quarter
Oct 4
New
Oct 11
First Quarter

Hourly Weather History & Observations

Time (CDT) Temp. Heat Index Dew Point Humidity Pressure Visibility Wind Dir Wind Speed Gust Speed Precip Events Conditions
12:53 AM 75.0 °F - 71.1 °F 87% 29.94 in 10.0 mi Calm Calm - N/A   Mostly Cloudy
1:53 AM 73.9 °F - 70.0 °F 87% 29.93 in 9.0 mi Calm Calm - N/A   Mostly Cloudy
2:53 AM 73.0 °F - 70.0 °F 90% 29.91 in 7.0 mi North 3.5 mph - N/A   Scattered Clouds
3:53 AM 73.0 °F - 70.0 °F 90% 29.91 in 8.0 mi Calm Calm - N/A   Clear
4:53 AM 73.0 °F - 69.1 °F 87% 29.91 in 7.0 mi North 3.5 mph - N/A   Clear
5:53 AM 72.0 °F - 70.0 °F 93% 29.92 in 6.0 mi North 4.6 mph - N/A   Clear
6:53 AM 72.0 °F - 70.0 °F 93% 29.94 in 4.0 mi Calm Calm - N/A   Scattered Clouds
7:53 AM 75.0 °F - 71.1 °F 87% 29.94 in 5.0 mi NNE 3.5 mph - N/A   Clear
8:53 AM 79.0 °F - 71.1 °F 77% 29.94 in 8.0 mi NE 5.8 mph - N/A   Clear
9:53 AM 82.9 °F 85.8 °F 68.0 °F 60% 29.96 in 10.0 mi ENE 9.2 mph - N/A   Clear
10:53 AM 84.9 °F 87.6 °F 66.9 °F 55% 29.96 in 10.0 mi NE 12.7 mph - N/A   Clear
11:53 AM 88.0 °F 90.3 °F 66.0 °F 48% 29.95 in 10.0 mi NE 9.2 mph - N/A   Clear
12:53 PM 90.0 °F 91.3 °F 64.0 °F 42% 29.93 in 10.0 mi NNE 10.4 mph 19.6 mph N/A   Scattered Clouds
1:53 PM 86.0 °F 85.7 °F 60.1 °F 41% 29.92 in 10.0 mi NNE 10.4 mph - N/A   Overcast
2:53 PM 90.0 °F 90.0 °F 61.0 °F 38% 29.89 in 10.0 mi NE 8.1 mph - N/A   Partly Cloudy
3:53 PM 89.1 °F 89.0 °F 61.0 °F 39% 29.87 in 10.0 mi North 10.4 mph - N/A   Clear
4:53 PM 88.0 °F 87.9 °F 61.0 °F 40% 29.87 in 10.0 mi North 10.4 mph - N/A   Clear
5:53 PM 84.9 °F 84.8 °F 60.1 °F 43% 29.88 in 10.0 mi NNE 11.5 mph - N/A   Clear
6:53 PM 80.1 °F 80.9 °F 60.1 °F 50% 29.90 in 10.0 mi North 8.1 mph - N/A   Clear
7:53 PM 72.0 °F - 60.1 °F 66% 29.93 in 10.0 mi North 4.6 mph - N/A   Clear
8:53 PM 69.1 °F - 61.0 °F 75% 29.95 in 10.0 mi North 4.6 mph - N/A   Clear
9:53 PM 66.0 °F - 60.1 °F 81% 29.96 in 10.0 mi North 4.6 mph - N/A   Clear
10:53 PM 66.0 °F - 59.0 °F 78% 29.97 in 10.0 mi North 5.8 mph - N/A   Clear
11:53 PM 64.0 °F - 57.0 °F 78% 29.97 in 10.0 mi North 5.8 mph - N/A   Clear